User: anonymous   Login
Location: Anciles
(42.5833°N, 0.5167°E)
Time: 09:20:52
(UTC+00:00)
Language:

Cosmos 676 Rocket - Orbit

View from above orbital plane
View from above orbital plane
View from above satellite
View from above satellite

Ground track
Ground track

The orbit data is extracted from the following two-line orbital elements,

1  7434U 74071B   20055.88033846 -.00000065 +00000-0 -13113-4 0  9995
2  7434 074.0453 209.2149 0021583 238.5053 121.3992 14.36730042377560
Epoch (UTC): 24 February 2020 21:07:41
Eccentricity: 0.0021583
inclination: 74.0453°
perigee height: 754 km
apogee height: 785 km
right ascension of ascending node: 209.2149°
argument of perigee: 238.5053°
revolutions per day: 14.36730042
mean anomaly at epoch: 121.3992°
orbit number at epoch: 37756

The dashed part of the orbit path shows where the satellite is in the earth's shadow,  

DLR